This demonstration page uses our WeatherBlox Daily Observations layout. Learn more.

Left ArrowRight Arrow

38.89511, -77.03637

Hourly Observations for March 19, 2021

Temp ( °F °C ) Dew Point ( °F °C ) Humidity (%) Winds ( mph kmh ) Pressure ( in mb ) Visibility ( mi km ) Precip ( " mm )
12:52 am 00:52 Cloudy 48 8.9 43 6.1 83 83 N 22 35 29.78 1009 10 16.0934 0 0
1:52 am 01:52 Cloudy 48 8.9 42 5.6 80 80 N 20 31 29.82 1010 10 16.0934 0 0
2:52 am 02:52 Cloudy 47 8.3 41 5 80 80 N 21 33 29.84 1011 10 16.0934 0 0
3:52 am 03:52 Cloudy 47 8.3 39 3.9 74 74 NNE 22 35 29.86 1011 10 16.0934 0 0
4:52 am 04:52 Cloudy 46 7.8 37 2.8 71 71 NNE 17 28 29.91 1013 10 16.0934 0 0
5:50 am 05:50 Cloudy 45 7 36 2 71 71 NNE 16 26 29.94 1014 10 16.0934 0 0
5:52 am 05:52 Cloudy 44 6.7 35 1.7 71 71 N 17 28 29.93 1014 10 16.0934 0 0
6:52 am 06:52 Cloudy 42 5.6 31 -0.6 65 65 N 24 39 29.99 1016 10 16.0934 0 0
7:52 am 07:52 Mostly Cloudy 41 5 26 -3.3 55 55 N 25 41 30.04 1017 10 16.0934 0 0
8:52 am 08:52 Mostly Cloudy 41 5 24 -4.4 51 51 N 21 33 30.1 1019 10 16.0934 0 0
9:52 am 09:52 Mostly Cloudy 40 4.4 21 -6.1 47 47 N 23 37 30.15 1021 10 16.0934 0 0
10:52 am 10:52 Mostly Cloudy 43 6.1 19 -7.2 38 38 N 17 28 30.19 1023 10 16.0934 0 0
11:52 am 11:52 Partly Cloudy 45 7.2 18 -7.8 34 34 N 21 33 30.23 1024 10 16.0934 0 0
12:52 pm 12:52 Partly Cloudy 47 8.3 16 -8.9 29 29 NNE 17 28 30.25 1025 10 16.0934 0 0
1:52 pm 13:52 Partly Cloudy 49 9.4 15 -9.4 26 26 NNE 18 30 30.26 1025 10 16.0934 0 0
2:52 pm 14:52 Mostly Sunny 50 10 15 -9.4 25 25 NNE 16 26 30.26 1025 10 16.0934 0 0
3:52 pm 15:52 Mostly Sunny 51 10.6 16 -8.9 25 25 N 16 26 30.27 1025 10 16.0934 0 0
4:52 pm 16:52 Sunny 51 10.6 14 -10 23 23 NNE 13 20 30.29 1026 10 16.0934 0 0
5:52 pm 17:52 Sunny 50 10 12 -11.1 22 22 NNE 17 28 30.31 1026 10 16.0934 0 0
6:52 pm 18:52 Sunny 47 8.3 16 -8.9 29 29 N 14 22 30.34 1027 10 16.0934 0 0
7:52 pm 19:52 Clear 45 7.2 16 -8.9 31 31 NNW 14 22 30.36 1028 10 16.0934 0 0
8:52 pm 20:52 Clear 43 6.1 15 -9.4 32 32 N 12 19 30.38 1029 10 16.0934 0 0
9:52 pm 21:52 Clear 42 5.6 15 -9.4 33 33 N 13 20 30.42 1030 10 16.0934 0 0
10:52 pm 22:52 Clear 42 5.6 15 -9.4 33 33 N 15 24 30.44 1031 10 16.0934 0 0
11:52 pm 23:52 Clear 41 5 15 -9.4 35 35 N 12 19 30.46 1032 10 16.0934 0 0

Powered by AerisWeather